Location: *
(47.8307°S, 178.3954°E)
Time: 22:51:54
(UTC+00:00)

Cosmos 2154 Rocket - Pass Details

Date: 12 August 2024
Orbit: 964 x 997 km, 82.9° (Epoch: 19 September)

Event Time Altitude Azimuth Distance (km) Brightness Sun altitude
Rises 17:38:03 0° 1° (N) 3,651 7.1 -16.4°
Reaches altitude 10° 17:40:32 10° 3° (N) 2,715 6.4 -15.9°
Maximum altitude 17:46:43 72° 85° (E) 1,037 4.3 -14.9°
Drops below altitude 10° 17:53:02 10° 167° (SSE) 2,767 6.5 -13.8°
Sets 17:55:35 0° 169° (S) 3,726 7.1 -13.4°
